Powrót do katalogu

FENGYUN 1C DEB

AktywnySSO
NORAD 33719·DEBRIS·🇨🇳 China

Wystrzelony May 10, 1999 z Taiyuan Satellite Launch Center

Loading…

Następne Przeloty (najbliższe 24 godziny)

TLE

ŚwieżeSource: Space-Track

Epoka: Sep 14, 2026, 15:41 UTC

1 33719U 99025DHG 26257.65406163  .00001198  00000-0  53439-3 0  9997
2 33719  98.7498 321.6356 0028487   4.6222 148.5119 14.24433032959403

Śledź FENGYUN 1C DEB w czasie rzeczywistym z AllMySat

Download on the App Store